Location: Unspecified
(50.7693°N, 0.0000°E)
Time: 06:35:12
(UTC+00:00)

Transit 2A - Pass Details

Date: 14 August 2020
Orbit: 591 x 967 km, 66.7° (Epoch: 20 September)

Event Time Altitude Azimuth Distance (km) Brightness Sun altitude
Rises 21:56:31 0° 272° (W) 3,540 9.9 -19.5°
Reaches altitude 10° 21:59:32 10° 287° (WNW) 2,645 9.4 -19.7°
Maximum altitude 22:04:28 24° 339° (NNW) 1,884 8.8 -20.1°
Drops below altitude 10° 22:09:32 10° 31° (NNE) 2,718 9.2 -20.5°
Sets 22:12:42 0° 46° (NE) 3,660 9.7 -20.8°
